Richlands, VA

5:51 AM EDT on July 25, 2017 (GMT -0400)
Tazewell County

Weather History for KJFZ - September, 2013

Change the Weather History Date:

Thursday, September 19, 2013

  Actual Average (KBLF) Record (KBLF)
Temperature  
Mean Temperature 66 °F -  
Max Temperature 70 °F 71 °F 87 °F (2005)
Min Temperature 62 °F 56 °F 40 °F (1973)
Cooling Degree Days 1    
Growing Degree Days 16 (Base 50)    
Moisture  
Dew Point 63 °F    
Average Humidity 93    
Maximum Humidity 95    
Minimum Humidity 89    
Precipitation  
Precipitation 1.09 in - - ()
Sea Level Pressure  
Sea Level Pressure 30.20 in    
Wind  
Wind Speed 2 mph (SSW)    
Max Wind Speed 7 mph    
Max Gust Speed -    
Visibility 3 miles    
Events Fog , Rain    
Averages and records for this station are not official NWS values.
T = Trace of Precipitation, MM = Missing Value Source: NWS Daily Summary

Daily Weather History Graph

Daily Weather History Graph

Search for Another Location

Airport or City:

Trip Planner

Search our weather history database for the weather conditions in past years. The results will help you decide how hot, cold, wet, or windy it might be!

Date:

Astronomy

Sep. 19, 2013 Rise Set
Actual Time 7:12 AM EDT 7:28 PM EDT
Civil Twilight 6:46 AM EDT 7:54 PM EDT
Nautical Twilight 6:16 AM EDT 8:24 PM EDT
Astronomical Twilight 5:45 AM EDT 8:55 PM EDT
Moon 7:27 PM EDT (9/19) 7:19 AM EDT (9/19)
Length of Visible Light 13h 07m
Length of Day
12h 15m
Full, 100% of the Moon is Illuminated
Sep 19
Full
Sep 26
Last Quarter
Oct 4
New
Oct 11
First Quarter
Oct 18
Full

Hourly Weather History & Observations

Time (EDT) Temp. Dew Point Humidity Pressure Visibility Wind Dir Wind Speed Gust Speed Precip Events Conditions
12:15 AM 63.3 °F 60.6 °F 91% 30.23 in 7.0 mi Calm Calm - N/A   Overcast
12:35 AM 63.1 °F 60.6 °F 91% 30.23 in 7.0 mi Calm Calm - N/A   Overcast
12:55 AM 63.1 °F 60.3 °F 90% 30.22 in 7.0 mi West 3.5 mph - N/A   Overcast
1:15 AM 62.6 °F 60.6 °F 93% 30.22 in 0.5 mi WSW 6.9 mph - N/A Fog Fog
1:35 AM 63.0 °F 60.3 °F 91% 30.22 in 7.0 mi Calm Calm - N/A   Overcast
1:55 AM 62.2 °F 60.4 °F 94% 30.21 in 0.5 mi SSE 4.6 mph - N/A Fog Fog
2:15 AM 62.4 °F 60.6 °F 94% 30.21 in 2.0 mi South 4.6 mph - N/A   Overcast
2:35 AM 62.2 °F 60.4 °F 94% 30.21 in 0.5 mi West 3.5 mph - N/A Fog Fog
2:55 AM 63.0 °F 60.4 °F 91% 30.21 in 7.0 mi WSW 4.6 mph - N/A   Overcast
3:15 AM 63.5 °F 60.3 °F 89% 30.21 in 7.0 mi Calm Calm - N/A   Overcast
3:35 AM 62.6 °F 60.4 °F 93% 30.20 in 2.5 mi Calm Calm - N/A   Overcast
3:55 AM 62.2 °F 60.4 °F 94% 30.20 in 0.8 mi Calm Calm - N/A   Overcast
4:15 AM 63.1 °F 60.3 °F 90% 30.20 in 7.0 mi Calm Calm - N/A   Overcast
4:35 AM 63.5 °F 60.1 °F 89% 30.20 in 7.0 mi Calm Calm - N/A   Overcast
4:55 AM 62.8 °F 60.4 °F 92% 30.20 in 5.0 mi Calm Calm - N/A   Overcast
5:15 AM 62.6 °F 60.8 °F 94% 30.19 in 0.8 mi Calm Calm - N/A   Overcast
5:35 AM 62.8 °F 60.8 °F 93% 30.20 in 3.0 mi Calm Calm - N/A Rain Rain
5:55 AM 62.8 °F 60.8 °F 93% 30.20 in 3.0 mi Calm Calm - N/A   Overcast
6:15 AM 62.6 °F 60.8 °F 94% 30.20 in 2.5 mi Calm Calm - N/A   Overcast
6:35 AM 63.3 °F 60.6 °F 91% 30.20 in 7.0 mi WSW 3.5 mph - N/A   Overcast
6:55 AM 62.8 °F 60.8 °F 93% 30.21 in 3.0 mi Calm Calm - N/A   Overcast
7:15 AM 63.0 °F 60.8 °F 93% 30.21 in 5.0 mi Calm Calm - N/A   Light Drizzle
7:35 AM 62.8 °F 60.8 °F 93% 30.21 in 2.5 mi Calm Calm - N/A   Overcast
7:55 AM 62.2 °F 60.3 °F 93% 30.22 in 0.2 mi West 3.5 mph - 0.04 in Rain Heavy Rain
8:15 AM 62.6 °F 60.8 °F 94% 30.22 in 2.0 mi WSW 4.6 mph - 0.06 in Rain Rain
8:35 AM 63.3 °F 61.2 °F 93% 30.23 in 3.0 mi WSW 5.8 mph - 0.14 in Rain Rain
8:55 AM 63.1 °F 61.2 °F 93% 30.22 in 1.0 mi SW 4.6 mph - 0.22 in Rain Rain
9:15 AM 63.1 °F 61.2 °F 93% 30.23 in 2.5 mi Calm Calm - N/A Rain Rain
9:35 AM 63.3 °F 61.2 °F 93% 30.24 in 2.5 mi Calm Calm - 0.07 in Rain Rain
9:55 AM 63.5 °F 61.3 °F 93% 30.24 in 2.5 mi Calm Calm - 0.08 in Rain Rain
10:15 AM 63.5 °F 61.7 °F 94% 30.24 in 1.8 mi Calm Calm - 0.01 in   Heavy Drizzle
10:35 AM 63.9 °F 61.9 °F 93% 30.24 in 1.5 mi SW 4.6 mph - 0.08 in Rain Heavy Rain
10:55 AM 63.9 °F 61.9 °F 93% 30.24 in 3.0 mi South 3.5 mph - 0.09 in   Overcast
11:15 AM 63.7 °F 61.7 °F 93% 30.25 in 2.0 mi SW 3.5 mph - N/A   Drizzle
11:35 AM 64.0 °F 62.1 °F 93% 30.25 in 1.5 mi Calm Calm - 0.07 in Rain Heavy Rain
11:55 AM 64.8 °F 62.8 °F 93% 30.24 in 4.0 mi Calm Calm - 0.09 in Rain Light Rain
12:15 PM 64.6 °F 62.6 °F 93% 30.24 in 1.8 mi SSW 3.5 mph - 0.05 in Rain Rain
12:35 PM 64.8 °F 62.8 °F 93% 30.24 in 3.0 mi SSW 3.5 mph - 0.11 in Rain Rain
12:55 PM 64.6 °F 62.6 °F 93% 30.24 in 3.0 mi SSW 3.5 mph - 0.16 in Rain Rain
1:15 PM 65.3 °F 63.3 °F 93% 30.23 in 4.0 mi Calm Calm - 0.01 in Rain Light Rain
1:35 PM 65.1 °F 63.1 °F 93% 30.22 in 3.0 mi Calm Calm - 0.03 in Rain Rain
1:55 PM 65.5 °F 63.5 °F 93% 30.22 in 4.0 mi Calm Calm - 0.03 in Rain Light Rain
2:15 PM 65.3 °F 63.3 °F 93% 30.21 in 1.5 mi Calm Calm - 0.10 in Rain Heavy Rain
2:35 PM 65.5 °F 63.5 °F 93% 30.21 in 2.0 mi Calm Calm - 0.21 in Rain Rain
2:55 PM 65.5 °F 63.5 °F 93% 30.20 in 2.0 mi South 3.5 mph - 0.36 in Rain Rain
3:15 PM 65.5 °F 63.7 °F 94% 30.20 in 2.5 mi Calm Calm - 0.01 in Rain Rain
3:35 PM 66.2 °F 64.0 °F 93% 30.19 in 5.0 mi Calm Calm - 0.02 in   Overcast
3:55 PM 66.6 °F 64.2 °F 92% 30.19 in 5.0 mi Calm Calm - 0.02 in   Overcast
4:15 PM 66.6 °F 64.8 °F 94% 30.19 in 0.2 mi Calm Calm - N/A Fog Fog
4:35 PM 67.6 °F 65.8 °F 94% 30.19 in 3.0 mi SSW 3.5 mph - N/A   Overcast
4:55 PM 68.9 °F 66.2 °F 91% 30.18 in 5.0 mi Calm Calm - N/A   Overcast
5:15 PM 69.1 °F 66.0 °F 90% 30.18 in 5.0 mi Calm Calm - N/A   Overcast
5:35 PM 69.1 °F 66.4 °F 91% 30.18 in 5.0 mi Calm Calm - N/A   Overcast
5:55 PM 69.3 °F 66.6 °F 91% 30.18 in 4.0 mi Calm Calm - N/A   Overcast
6:15 PM 70.0 °F 66.6 °F 89% 30.18 in 7.0 mi Calm Calm - N/A   Overcast
6:35 PM 69.1 °F 66.6 °F 92% 30.17 in 3.0 mi Calm Calm - N/A   Overcast
6:55 PM 68.9 °F 66.6 °F 92% 30.17 in 3.0 mi South 3.5 mph - N/A   Mostly Cloudy
7:15 PM 68.5 °F 66.4 °F 93% 30.17 in 1.8 mi Calm Calm - N/A   Mostly Cloudy
7:35 PM 68.4 °F 66.6 °F 94% 30.17 in 2.0 mi Calm Calm - N/A   Mostly Cloudy
7:55 PM 68.2 °F 66.2 °F 93% 30.17 in 3.0 mi Calm Calm - N/A   Overcast
8:15 PM 68.0 °F 66.2 °F 94% 30.16 in 3.0 mi Calm Calm - N/A   Scattered Clouds
8:35 PM 67.3 °F 65.5 °F 94% 30.16 in 0.8 mi SSE 3.5 mph - N/A   Overcast
8:55 PM 67.1 °F 65.5 °F 95% 30.17 in 2.5 mi Calm Calm - N/A   Mostly Cloudy
9:15 PM 67.1 °F 65.3 °F 94% 30.16 in 4.0 mi SSE 3.5 mph - N/A   Overcast
9:35 PM 66.6 °F 64.8 °F 94% 30.16 in 0.8 mi SSE 4.6 mph - N/A   Overcast
9:55 PM 66.4 °F 64.8 °F 95% 30.16 in 1.0 mi Calm Calm - N/A   Overcast
10:15 PM 66.6 °F 64.6 °F 93% 30.16 in 4.0 mi South 3.5 mph - N/A   Scattered Clouds
10:35 PM 66.4 °F 64.4 °F 93% 30.16 in 4.0 mi SSE 3.5 mph - N/A   Clear
10:55 PM 66.4 °F 64.4 °F 93% 30.16 in 5.0 mi SSE 3.5 mph - N/A   Clear
11:15 PM 66.6 °F 64.2 °F 92% 30.16 in 5.0 mi SSE 4.6 mph - N/A   Clear
11:35 PM 66.4 °F 63.9 °F 92% 30.16 in 7.0 mi SSE 3.5 mph - N/A   Clear
11:55 PM 66.7 °F 63.7 °F 90% 30.16 in 7.0 mi SSE 4.6 mph - N/A   Scattered Clouds